Regional Weather Roundup
Issued by NWS

Home | Current Version | Previous Version | Text Only | Print | Product List | Glossary On
Versions: 1 2 3 4 5 6 7 8 9 10 11 12 13 14 15 16 17 18 19 20 21 22 23 24 25 26 27 28 29 30 31 32 33 34 35 36 37 38 39 40 41 42 43 44 45 46 47 48 49 50
476
ASUS43 KFSD 241010
RWRSD

WEATHER ROUNDUP FOR SOUTH DAKOTA
NATIONAL WEATHER SERVICE SIOUX FALLS SD
400 AM CST FRI FEB 24 2017

NOTE: "FAIR" INDICATES FEW OR NO CLOUDS BELOW 12,000 FEET WITH NO
SIGNIFICANT WEATHER AND/OR OBSTRUCTIONS TO VISIBILITY.


SDZ001>005-009-010-012>017-241100-
NORTHWEST AND NORTH CENTRAL SOUTH DAKOTA

CITY           SKY/WX    TMP DP  RH WIND       PRES   REMARKS
BUFFALO          N/A     15  11  83 E7        29.98S WCI   5
FAITH            N/A     18  16  92 N20       30.03S WCI   2
MOBRIDGE       CLOUDY    21  14  74 N9        30.06S WCI  11
$$

SDZ012>016-024>037-041>051-057-063-072>074-241100-
SOUTHWEST AND SOUTH CENTRAL SOUTH DAKOTA

CITY           SKY/WX    TMP DP  RH WIND       PRES   REMARKS
RAPID CTY ARPT LGT SNOW  22  20  92 N15       29.98F FOG     WCI   9
PIERRE         CLOUDY    22  15  75 N17G25    30.02S WCI   8
CUSTER         LGT SNOW  16  11  80 NE5       29.84F WCI   9
ELLSWORTH AFB  FLURRIES  22  22  99 N14       29.98  WCI   9
PHILIP         CLOUDY    24  19  81 N15       30.02S WCI  11
PINE RIDGE     LGT SNOW  23  20  88 N10       29.95S FOG     WCI  12
SPEARFISH      LGT SNOW  21  19  93 E13       29.97F WCI   9
WINNER         CLOUDY    23  17  78 N22       29.96R WCI   8
$$

SDZ004>011-016>023-039-040-241100-
NORTHEAST SOUTH DAKOTA

CITY           SKY/WX    TMP DP  RH WIND       PRES   REMARKS
ABERDEEN       MOCLDY    20  13  74 N21G32    30.05S WCI   4
WATERTOWN      CLOUDY    19  13  77 N25G31    29.92S WCI   1
BROOKINGS      CLOUDY    21  17  84 N24G31    29.87S WCI   4
SISSETON         N/A     20  15  81 N23       30.02R WCI   3
$$

SDZ017-020-022-023-036>040-048>070-241100-
SOUTHEAST SOUTH DAKOTA

CITY           SKY/WX    TMP DP  RH WIND       PRES   REMARKS
SIOUX FALLS    CLOUDY    25  22  88 N23G32    29.83S FOG     WCI  10
HURON          CLOUDY    21  15  78 N21G29    29.98R WCI   5
CHAMBERLAIN    CLOUDY    24  18  78 N22G29    29.97S WCI   8
MITCHELL       CLOUDY    24  19  81 N23G35    29.93F WCI   9
YANKTON        CLOUDY   N/A N/A N/A N22G30    29.83S
$$

ABBREVIATIONS USED IN REMARKS
   TC - TEMPERATURE IN CELSIUS
  WCI - WIND CHILL INDEX
   HX - HEAT INDEX
  VSB - VISIBILITY





USA.gov is the U.S. government's official web portal to all federal, state and local government web resources and services.